STARLINK-34017, 64339

Orbit data source: Space-Track

STARLINK-34017, 64339 is a payload satellite owned by SpaceX/Seattle (US) in LEO that was launched on Tue, 10 Jun 2025 UTC via an FALCON 9 launch vehicle from the Air Force Eastern Test Range (AFETR). Payload-class satellites include a variety of spacecraft equipped with specific instruments for various scientific and technological missions. These include communications satellites like Starlink; space stations such as the ISS; scientific satellites like the Hubble; Earth observation satellites from companies like Planet Labs, Umbra, and HawkEye 360; GPS; miniature CubeSats for education and research; and military/defense satellites.

Loading next visibility...
Identifier
64339, 2025-124Y
Orbit
LEO
Country
Flag of USUS
Related business
Manufacturer
SpaceX/Seattle
Mission
Operational Commercial Communications
Bus & Motor
STARLINK V2MO, Unknown motor
Mass
575 kg wet, ~530 kg dry
Launch date (UTC)
2025-06-10 (11 months ago)
Launch vehicle
FALCON 9
Launch site
Air Force Eastern Test Range (AFETR)
Object type
Payload
Rocket body
Debris
Shape & HBR
Box + 2 Pan, 17.7 m
Radar Cross Section
36.964 m², Large (>1 m²)

Expand to show TLE details & history
Last TLE update: 8 hours ago

TLE from 8 hours ago
0 STARLINK-34017
1 64339U 25124Y   26119.90740825  .00027445  00000-0  10020-2 0  9990
2 64339  43.0013 192.4404 0002662 269.9208  90.1338 15.27616631 49616
Epoch: 2026-04-29T21:46Z
TLE epoch observation values (Epoch: 2026-04-29T21:46:40.072Z)
Latitude
-0.00008°
Longitude
7.91172°
Altitude
482.72 km
Speed
7.626 km/s
True Right ascension
12h 49m 45s
True Declination
0° 00' 00"
Sunlit
Object was in full shadow at epoch
Visualization orbit readout
Latitude
Unknown
Longitude
Unknown
Altitude
Unknown
Speed
Unknown
Apparent Right ascension
Unknown
Apparent Declination
Unknown
Sunlit
N/A
Visualization observer readout
Local Sidereal Time
13:38:13
Azimuth
Unknown
Elevation
Unknown
Doppler factor
Unknown
Orbital elements
Apogee altitude
486.711 km
Perigee altitude
483.057 km
Semi-major axis
6,863.021 km
Eccentricity
0.00027
Inclination
43.0013°
RAAN
192.4404°
Arg. of periapsis
269.9208°
True anomaly
90.1643°
Mean anomaly
90.1338°
Eccentric anomaly
90.14905°
Mean motion
3.81742 °/min
Orbital period
94.3 mins
BSTAR
0.001002
Loading maneuver chart data...
Computing Atmospheric mass density...
Loading historical data...
Loading historical data...
Loading historical data...
Loading historical data...
Loading historical data...
Loading historical data...
Loading historical data...

Documentation

Showing up to 5 results
|